This demonstration page uses our WeatherBlox Daily Observations layout. Learn more.

Left ArrowRight Arrow

39.92423, -83.80882

Hourly Observations for January 6, 2021

Temp ( °F °C ) Dew Point ( °F °C ) Humidity (%) Winds ( mph kmh ) Pressure ( in mb ) Visibility ( mi km ) Precip ( " mm )
12:56 am 00:56 Cloudy with Mist and Fog 33 0.6 33 0.6 100 100 WNW 8 13 30.23 1024 6 9.65604 0.001 0.001
1:28 am 01:28 Cloudy with Mist and Fog 34 1 34 1 100 100 WNW 7 11 30.24 1024 5 8.0467 0.001 0.001
1:56 am 01:56 Cloudy with Mist and Fog 33 0.6 33 0.6 100 100 WNW 8 13 30.24 1024 6 9.65604 0.01 0.254
2:56 am 02:56 Cloudy 33 0.6 33 0.6 100 100 WNW 9 15 30.25 1024 7 11.26538 0 0
3:56 am 03:56 Cloudy 33 0.6 33 0.6 100 100 WNW 7 11 30.26 1025 7 11.26538 0 0
4:56 am 04:56 Cloudy N/A N/A N/A NW 6 9 N/A 7 11.26538 0 0
5:56 am 05:56 Cloudy 33 0.6 32 0 96 96 NW 6 9 30.27 1025 9 14.48406 0 0
6:56 am 06:56 Cloudy 33 0.6 32 0 96 96 WNW 5 7 30.29 1026 10 16.0934 0 0
7:56 am 07:56 Cloudy 33 0.6 32 0 96 96 NW 5 7 30.32 1027 10 16.0934 0 0
8:56 am 08:56 Cloudy 33 0.6 32 0 96 96 NNW 5 7 30.32 1027 10 16.0934 0 0
9:56 am 09:56 Cloudy 34 1.1 32 0 92 92 NW 7 11 30.35 1028 10 16.0934 0 0
10:56 am 10:56 Cloudy 35 1.7 31 -0.6 85 85 NW 6 9 30.35 1028 10 16.0934 0 0
11:56 am 11:56 Cloudy 35 1.7 29 -1.7 78 78 NNW 8 13 30.33 1027 10 16.0934 0 0
12:56 pm 12:56 Cloudy 36 2.2 28 -2.2 73 73 NNE 5 7 30.31 1026 10 16.0934 0 0
1:56 pm 13:56 Cloudy 36 2.2 28 -2.2 73 73 NNW 7 11 30.3 1026 10 16.0934 0 0
2:56 pm 14:56 Cloudy 36 2.2 28 -2.2 73 73 NNW 7 11 30.31 1027 10 16.0934 0 0
3:56 pm 15:56 Cloudy 35 1.7 28 -2.2 76 76 NNW 3 6 30.32 1027 10 16.0934 0 0
4:28 pm 16:28 Cloudy 36 2 28 -2 75 75 NW 5 7 30.35 1028 10 16.0934 0 0
4:56 pm 16:56 Cloudy 35 1.7 29 -1.7 78 78 NNW 5 7 30.34 1027 10 16.0934 0 0
5:56 pm 17:56 Cloudy 34 1.1 29 -1.7 82 82 NNW 5 7 30.33 1027 10 16.0934 0 0
6:56 pm 18:56 Cloudy 34 1.1 31 -0.6 89 89 NNW 6 9 30.34 1028 10 16.0934 0 0
7:56 pm 19:56 Cloudy 33 0.6 30 -1.1 89 89 N 3 6 30.36 1028 10 16.0934 0 0
8:56 pm 20:56 Cloudy 33 0.6 31 -0.6 92 92 N 5 7 30.35 1028 10 16.0934 0.01 0.254
9:56 pm 21:56 Cloudy 33 0.6 31 -0.6 92 92 NNE 3 6 30.35 1028 10 16.0934 0 0
10:56 pm 22:56 Cloudy 33 0.6 31 -0.6 92 92 N 3 6 30.35 1028 10 16.0934 0 0
11:56 pm 23:56 Cloudy 32 0 32 0 100 100 NE 3 6 30.33 1027 10 16.0934 0 0

Powered by AerisWeather